Wind_Speed
1 1 1 2 2 3 4 5 5 5 4 4 3 2 2 1 1 2 2 3 4 4 5 6 6 6 5 5 5 5 6 6 5 5 5 4 4 4 3 2 2 2 2
2 2 3 3 4 5 6 6 6 6 6 5 5 4 4 3 3 2 3 3 3 4 5 5 5 5 5 5 5 5 5 5 5 5 5 4 4 4 3 3 2 2 2
4 4 4 5 6 7 7 8 8 8 7 7 7 6 6 5 4 4 4 4 4 4 5 5 5 5 5 5 5 5 5 5 5 5 5 4 4 4 3 3 3 2 3
6 6 6 6 7 8 8 9 9 9 8 8 8 7 7 6 6 6 5 5 5 5 5 5 5 5 6 6 5 5 5 5 5 5 5 5 4 4 4 4 4 3 3
6 7 7 8 9 9 9 9 9 9 9 8 8 8 7 7 7 7 7 6 6 6 6 7 7 6 7 6 6 6 6 6 6 5 5 5 5 5 5 4 4 4 4
8 9 9 10 11 11 11 10 10 10 10 10 9 9 8 8 8 8 8 8 8 8 8 8 8 8 8 8 8 7 7 7 7 6 6 6 6 6 5 5 5 5 5
10 11 12 12 12 12 12 11 11 12 11 11 11 10 10 10 10 10 10 9 9 9 9 10 10 9 9 9 9 9 9 9 8 8 8 7 7 7 7 7 6 6 6
12 12 13 13 13 13 13 13 13 13 13 12 12 12 12 12 12 12 12 11 11 11 11 11 11 12 11 11 11 11 10 10 10 10 10 9 9 9 8 8 8 7 7
12 13 13 14 14 15 15 15 14 14 14 14 14 14 13 13 13 14 13 13 13 13 13 13 13 14 13 13 13 13 12 12 12 12 11 11 11 11 10 10 9 9 8
13 13 14 15 16 16 16 16 16 16 16 16 16 16 15 15 15 15 15 15 15 15 15 15 15 15 15 15 15 15 15 15 14 14 14 13 13 13 13 12 11 11 10
14 15 16 17 17 17 18 17 17 17 17 18 17 16 16 16 17 16 17 17 17 17 17 17 16 16 17 17 16 16 16 16 16 16 16 15 15 15 15 14 13 13 12
16 16 17 18 19 19 18 18 18 18 18 18 18 17 17 17 18 18 19 19 18 18 18 18 18 18 18 18 18 18 18 18 18 18 17 17 17 17 16 16 16 15 14
17 17 18 19 20 20 20 19 19 19 19 19 19 19 19 19 19 19 19 19 20 20 20 20 20 19 19 20 20 20 20 20 20 20 19 19 19 19 18 18 18 17 16
18 18 19 20 21 21 21 21 20 20 19 19 20 20 20 20 20 20 19 20 21 21 22 21 21 21 21 21 22 22 22 21 21 21 21 20 21 21 20 20 19 19 17
19 19 20 21 21 21 22 22 21 21 21 21 21 21 21 22 21 21 21 22 22 22 22 22 22 23 23 23 23 23 24 24 23 22 22 21 22 22 22 21 21 20 19
21 21 21 22 22 21 22 22 22 22 22 21 21 22 22 23 22 22 23 23 23 23 23 23 23 23 23 25 24 24 25 25 25 25 24 24 24 24 24 23 22 22 21
22 21 22 22 23 23 23 23 23 23 23 23 23 23 23 23 23 24 24 23 23 24 24 24 25 25 25 26 26 26 27 27 27 27 26 25 25 25 26 25 23 22 22
22 22 23 23 23 23 23 23 24 24 24 24 23 23 23 24 24 25 25 24 25 25 25 26 27 28 27 27 27 27 28 28 29 28 27 26 26 25 26 26 25 24 23
24 23 23 23 24 24 24 24 24 24 25 25 25 24 24 24 25 25 26 25 26 26 26 27 27 27 28 28 27 27 28 28 29 29 28 27 26 26 26 26 26 25 25
25 24 24 24 25 25 25 26 25 25 26 26 25 25 25 26 26 26 27 27 27 27 27 27 27 28 27 28 28 28 28 29 29 29 28 28 27 27 27 27 27 27 26
25 25 25 26 26 26 27 27 26 26 26 26 26 26 26 27 27 28 28 28 28 28 28 27 28 29 28 28 28 29 29 29 28 29 29 29 28 28 28 28 27 27 27
25 25 25 26 27 27 28 27 26 26 26 27 27 26 26 28 29 29 28 29 29 30 30 29 29 29 29 29 29 28 29 29 29 29 30 30 30 29 29 28 28 28 28
26 26 27 27 28 29 28 28 27 27 27 27 27 27 27 28 29 29 29 30 30 30 31 31 30 30 30 29 29 29 29 28 29 30 30 30 31 30 29 29 28 27 27
27 27 28 28 28 29 29 29 28 28 28 28 28 28 29 30 31 31 31 31 30 31 31 30 31 31 30 29 29 29 30 30 30 30 29 30 31 30 30 29 28 28 27
26 27 28 28 28 28 29 29 30 29 29 28 28 28 29 30 31 31 31 31 32 31 31 31 31 31 30 30 30 29 30 31 31 31 30 30 30 30 29 29 29 28 28
26 27 27 28 28 28 28 28 28 28 28 28 28 29 30 30 30 30 30 30 31 31 31 31 31 31 30 30 30 31 30 30 31 31 31 30 30 29 29 28 28 28 27
Wind_Direction
278 286 304 303 304 306 298 289 285 281 281 278 273 273 275 284 320 342 1 7 5 4 3 1 1 359 359 355 352 349 347 346 346 344 343 341 343 342 338 326 318 304 288
280 276 276 286 288 292 290 286 283 279 279 279 275 272 271 276 285 300 320 336 342 345 347 345 345 344 343 343 343 340 340 341 341 341 341 337 337 340 339 329 317 302 290
283 279 274 279 283 285 284 283 281 280 279 278 276 273 269 269 275 282 292 305 316 323 327 326 328 330 328 328 330 332 332 332 332 333 335 337 335 334 328 316 301 286 278
280 280 278 280 281 281 282 281 282 281 280 279 275 273 273 272 276 278 282 289 296 301 305 308 311 312 315 318 318 320 321 318 320 322 324 326 323 321 318 304 286 268 264
278 280 279 282 281 278 280 279 280 280 279 280 277 274 274 275 274 274 275 277 281 285 289 296 300 302 302 304 306 309 311 308 308 307 309 310 306 302 302 293 275 261 253
283 284 283 282 280 278 279 278 279 279 278 278 278 277 274 274 273 270 271 272 273 276 280 285 290 293 293 293 294 295 298 296 295 292 292 293 291 288 287 282 268 254 249
282 282 281 281 278 275 277 277 279 278 277 278 279 277 275 274 274 271 269 269 269 270 274 278 280 281 282 283 284 285 286 287 285 282 280 281 279 277 278 273 262 248 247
279 280 278 276 275 273 273 274 274 277 279 278 280 278 276 277 275 274 272 270 269 269 271 274 275 276 275 276 276 276 276 277 275 275 274 274 273 271 270 267 255 247 245
279 277 273 271 271 271 273 273 275 276 277 279 281 279 277 279 278 274 273 272 271 271 270 270 270 271 270 271 272 272 272 271 269 270 271 270 269 269 268 264 255 249 245
279 275 273 273 272 272 272 271 272 274 276 278 280 278 278 278 278 276 275 273 272 271 271 270 268 267 268 269 269 269 269 268 265 266 266 266 267 268 268 265 256 250 247
279 275 273 274 273 273 273 271 271 273 277 279 280 280 279 280 279 277 277 275 273 272 272 270 268 265 267 266 266 266 267 267 264 264 264 265 265 266 265 263 258 256 252
277 275 274 273 271 272 273 272 272 273 276 278 279 279 279 278 279 279 278 277 277 274 273 270 268 266 266 265 264 265 266 266 264 263 262 263 263 264 263 263 263 260 255
274 273 272 269 268 270 271 272 273 274 275 276 277 277 277 278 279 279 278 278 278 278 275 271 270 268 267 265 263 262 263 263 263 263 262 263 262 263 264 264 264 262 256
274 273 274 270 269 270 269 270 272 274 275 276 276 277 277 276 277 278 278 277 278 277 275 274 274 270 266 264 264 262 260 260 261 262 264 263 261 261 263 264 263 260 257
274 274 272 270 269 268 268 271 271 274 274 274 274 275 276 276 277 278 278 278 279 277 276 274 274 273 268 265 265 263 260 261 260 262 263 263 261 260 261 261 262 260 257
273 274 272 272 270 268 267 269 270 272 273 275 275 275 276 276 277 278 278 278 278 276 276 276 277 276 273 269 266 264 262 261 261 262 263 263 262 260 260 261 261 260 260
273 273 273 273 271 271 272 273 271 273 275 275 275 275 274 274 275 277 278 278 278 277 275 275 276 276 273 270 267 263 261 262 263 261 262 263 261 260 260 260 260 260 260
273 273 273 273 273 273 275 276 274 272 273 274 274 274 273 273 275 276 278 278 278 278 276 275 276 275 272 269 267 265 263 262 261 260 261 261 260 259 258 257 257 259 259
272 274 273 273 273 274 275 276 275 275 275 274 274 274 274 275 276 276 276 277 278 278 277 276 276 273 272 268 266 267 265 263 260 259 259 261 260 258 258 256 257 257 257
271 273 274 274 275 274 274 275 276 275 275 275 275 275 276 276 277 276 276 276 277 277 277 276 275 273 271 268 266 266 266 263 261 261 260 260 260 258 257 257 258 257 258
272 273 275 276 277 275 274 275 275 274 275 276 276 275 275 276 277 277 277 276 275 275 275 274 274 273 270 269 268 267 265 263 261 261 259 258 258 258 258 258 259 257 257
274 276 277 277 276 275 276 275 274 274 275 275 275 275 276 276 277 277 276 275 274 274 273 273 273 272 270 267 266 265 265 263 261 261 259 258 258 259 260 259 259 258 258
273 273 276 277 278 275 276 275 274 273 274 275 275 275 275 276 276 276 277 277 276 274 273 272 271 269 268 266 265 263 263 260 261 261 260 257 256 257 258 258 258 258 257
273 273 275 275 277 276 276 276 273 274 275 275 276 276 276 277 277 277 278 278 276 275 273 272 271 269 268 266 264 263 262 261 262 261 259 258 256 255 256 257 257 255 255
276 276 276 277 277 277 277 277 275 275 277 277 278 279 279 279 278 278 279 280 276 275 274 272 270 269 268 266 264 264 263 262 263 262 259 257 255 255 256 256 257 256 257
277 278 278 278 277 278 278 277 275 275 277 277 277 277 279 279 278 277 278 279 277 277 276 274 271 269 268 266 264 263 262 262 261 261 257 256 255 256 256 256 255 254 254
Height
5916 5916 5915 5915 5915 5915 5915 5915 5914 5914 5913 5913 5912 5911 5911 5911 5910 5910 5910 5909 5909 5909 5908 5907 5906 5906 5905 5905 5904 5903 5902 5901 5901 5900 5899 5898 5897 5897 5896 5895 5895 5895 5895
5915 5915 5915 5914 5914 5914 5914 5914 5913 5913 5912 5911 5911 5910 5910 5909 5909 5909 5909 5908 5908 5908 5907 5906 5905 5905 5904 5904 5903 5902 5902 5901 5900 5900 5898 5898 5897 5896 5896 5895 5895 5894 5894
5913 5913 5913 5913 5913 5913 5913 5912 5912 5911 5910 5910 5910 5909 5909 5908 5908 5907 5907 5907 5907 5906 5906 5905 5904 5904 5903 5903 5902 5901 5901 5900 5900 5899 5898 5897 5896 5896 5895 5895 5894 5894 5894
5912 5912 5912 5912 5912 5911 5911 5911 5910 5910 5909 5908 5908 5908 5907 5907 5906 5906 5906 5906 5905 5905 5905 5904 5903 5903 5902 5902 5901 5900 5900 5899 5899 5898 5897 5896 5896 5895 5895 5894 5894 5893 5893
5910 5910 5910 5910 5910 5909 5909 5909 5908 5908 5907 5907 5906 5906 5905 5905 5905 5904 5904 5904 5904 5903 5903 5902 5902 5901 5901 5900 5900 5899 5899 5898 5897 5897 5896 5895 5895 5895 5894 5894 5893 5893 5893
5908 5908 5908 5908 5908 5907 5907 5906 5906 5906 5905 5905 5904 5904 5903 5903 5903 5902 5902 5902 5901 5901 5901 5900 5900 5900 5899 5899 5898 5898 5897 5897 5896 5896 5895 5894 5894 5894 5893 5892 5892 5892 5892
5906 5906 5905 5905 5905 5905 5905 5904 5904 5903 5902 5902 5902 5901 5901 5901 5901 5900 5900 5899 5899 5899 5899 5898 5898 5897 5897 5897 5896 5896 5895 5895 5895 5894 5894 5893 5893 5892 5892 5891 5891 5890 5890
5904 5903 5903 5902 5902 5902 5902 5902 5901 5901 5900 5899 5899 5899 5899 5898 5898 5898 5897 5897 5896 5896 5896 5896 5895 5895 5894 5894 5894 5893 5893 5893 5893 5892 5892 5891 5891 5890 5890 5890 5889 5889 5889
5901 5901 5900 5899 5899 5899 5899 5899 5899 5898 5898 5897 5897 5896 5896 5895 5895 5894 5894 5894 5894 5893 5893 5893 5892 5892 5892 5891 5891 5891 5891 5890 5890 5890 5889 5889 5889 5888 5888 5888 5887 5887 5887
5899 5898 5898 5897 5897 5897 5896 5896 5895 5895 5895 5894 5894 5893 5892 5892 5891 5891 5891 5891 5890 5890 5890 5889 5889 5889 5888 5888 5888 5888 5887 5887 5887 5887 5887 5886 5886 5886 5885 5885 5885 5885 5885
5896 5895 5895 5894 5894 5894 5893 5892 5892 5891 5891 5891 5890 5889 5889 5888 5888 5887 5887 5886 5886 5886 5886 5886 5885 5885 5884 5884 5884 5884 5884 5883 5884 5884 5883 5883 5883 5883 5882 5882 5882 5882 5882
5893 5892 5892 5891 5891 5890 5889 5889 5888 5888 5887 5887 5886 5886 5885 5885 5884 5883 5883 5882 5882 5882 5881 5881 5881 5881 5880 5880 5880 5880 5880 5880 5879 5880 5880 5880 5879 5879 5879 5879 5878 5879 5879
5890 5889 5888 5888 5887 5886 5886 5885 5884 5884 5883 5883 5882 5882 5881 5881 5880 5879 5878 5878 5877 5877 5877 5876 5876 5876 5876 5876 5876 5875 5876 5875 5875 5875 5875 5875 5875 5875 5875 5875 5875 5875 5875
5886 5885 5885 5884 5883 5882 5882 5881 5880 5880 5879 5879 5878 5878 5877 5876 5875 5875 5874 5873 5872 5872 5871 5871 5870 5871 5870 5870 5870 5870 5871 5871 5871 5871 5871 5871 5871 5871 5871 5871 5871 5871 5871
5882 5881 5881 5880 5878 5878 5877 5877 5876 5875 5875 5875 5874 5873 5872 5872 5871 5870 5869 5868 5867 5867 5866 5865 5865 5865 5864 5864 5865 5865 5865 5865 5865 5866 5866 5866 5866 5866 5866 5867 5867 5867 5867
5877 5877 5876 5876 5875 5875 5873 5872 5872 5871 5870 5870 5869 5868 5868 5867 5866 5865 5864 5863 5862 5862 5861 5860 5860 5859 5859 5859 5859 5859 5859 5860 5860 5860 5860 5861 5861 5861 5861 5862 5862 5863 5863
5873 5872 5872 5871 5871 5870 5869 5868 5867 5867 5866 5865 5865 5864 5863 5862 5861 5860 5859 5858 5857 5856 5856 5855 5854 5854 5854 5853 5853 5853 5853 5853 5854 5854 5855 5855 5855 5856 5856 5857 5857 5858 5858
5869 5868 5867 5867 5866 5866 5865 5863 5863 5862 5861 5860 5859 5859 5858 5857 5856 5855 5854 5853 5852 5851 5850 5850 5849 5848 5847 5847 5847 5847 5847 5847 5848 5848 5849 5849 5850 5850 5851 5851 5852 5853 5854
5864 5863 5862 5862 5861 5860 5859 5858 5857 5857 5856 5855 5854 5853 5852 5851 5850 5849 5848 5847 5846 5845 5844 5843 5843 5841 5841 5840 5840 5841 5841 5841 5842 5843 5843 5843 5844 5844 5845 5846 5846 5847 5848
5858 5858 5857 5857 5856 5854 5854 5853 5852 5851 5850 5849 5849 5848 5847 5846 5845 5843 5842 5841 5840 5839 5838 5837 5836 5835 5834 5834 5834 5834 5835 5835 5836 5836 5837 5837 5838 5838 5839 5840 5840 5841 5842
5853 5853 5852 5851 5850 5849 5848 5847 5846 5845 5844 5844 5843 5842 5840 5839 5838 5837 5836 5835 5833 5832 5832 5831 5830 5829 5828 5828 5827 5828 5828 5828 5829 5830 5830 5831 5832 5832 5833 5833 5834 5835 5836
5848 5847 5846 5845 5844 5843 5842 5840 5840 5839 5838 5837 5836 5835 5834 5833 5832 5830 5829 5828 5826 5825 5825 5824 5823 5822 5821 5821 5821 5821 5821 5823 5823 5823 5824 5824 5825 5826 5826 5827 5828 5829 5830
5842 5841 5840 5839 5838 5836 5835 5834 5833 5832 5831 5830 5829 5828 5827 5825 5824 5823 5822 5821 5819 5818 5817 5816 5815 5814 5814 5814 5814 5814 5815 5815 5816 5816 5817 5817 5818 5819 5820 5821 5822 5823 5823
5836 5835 5834 5833 5832 5830 5828 5827 5826 5825 5824 5823 5822 5821 5819 5818 5817 5816 5814 5813 5812 5810 5809 5808 5808 5807 5807 5807 5807 5807 5808 5808 5808 5809 5810 5810 5811 5812 5813 5814 5815 5816 5817
5830 5829 5827 5826 5825 5823 5821 5820 5819 5818 5817 5816 5814 5813 5812 5810 5809 5808 5806 5805 5804 5803 5802 5801 5800 5800 5800 5799 5800 5800 5800 5801 5801 5802 5802 5803 5804 5805 5806 5807 5808 5809 5810
5824 5823 5821 5819 5818 5816 5814 5813 5812 5811 5810 5809 5807 5806 5804 5803 5801 5800 5799 5797 5796 5795 5794 5793 5792 5792 5792 5792 5792 5792 5793 5793 5794 5794 5795 5795 5796 5798 5799 5800 5801 5803 5804